Location: Asni�res
(49.1337°N, 2.3555°E)
Time: 03:46:22
(UTC+00:00)

H-2A R/B - Pass Details

Date: 16 October 2021
Orbit: 733 x 837 km, 98.2° (Epoch: 27 November)

Event Time Altitude Azimuth Distance (km) Brightness Sun altitude
Rises 18:24:44 0° 184° (S) 3,309 5.3 -14.9°
Reaches altitude 10° 18:27:09 10° 191° (S) 2,397 4.7 -15.3°
Maximum altitude 18:32:13 44° 263° (W) 1,141 3.4 -16.1°
Drops below altitude 10° 18:37:24 10° 335° (NNW) 2,456 5.0 -16.9°
Sets 18:39:55 0° 342° (NNW) 3,399 5.7 -17.4°
